Temp
20 20 20 19 20 20 20 20 20 20 20 20 20 20 20 19 20 20 19 19 20 20
19 20 20 20 19 19 20 20 20 20 20 20 20 20 19 20 19 19 20 20 20 20
19 19 19 19 19 19 19 20 20 20 20 19 19 19 19 19 19 19 19 19 19 20
19 19 19 19 19 19 19 18 18 19 19 19 19 19 19 19 19 19 19 19 19 19
17 18 19 19 19 18 20 19 19 19 19 20 20 19 19 19 19 19 19 19 19 19
16 17 17 17 18 18 19 20 19 19 19 19 19 19 19 19 19 19 19 19 19 19
16 16 16 16 16 17 17 17 18 19 19 19 20 20 19 19 19 19 19 19 19 19
15 15 16 15 16 16 16 16 17 17 18 18 19 20 19 19 18 18 19 19 19 19
14 14 15 15 15 15 16 16 16 16 17 17 18 19 18 18 18 18 18 19 19 18
13 13 14 14 14 14 15 15 16 16 16 17 17 17 17 17 17 18 18 18 18 18
11 12 13 13 14 14 14 15 15 16 17 17 17 17 17 16 16 17 18 18 18 18
10 11 11 12 13 14 13 14 15 15 16 16 18 18 17 17 17 17 17 17 18 18
10 10 10 10 11 12 13 14 14 15 16 17 18 18 18 17 17 17 17 16 17 17
9 10 10 9 10 11 11 12 14 14 16 17 17 17 17 17 17 17 17 16 17 18
Height
1540 1542 1543 1544 1546 1548 1549 1550 1551 1551 1552 1554 1556 1556 1556 1556 1557 1557 1558 1560 1561 1561
1539 1540 1540 1540 1541 1542 1543 1544 1545 1546 1548 1550 1551 1551 1552 1551 1552 1553 1553 1553 1553 1554
1535 1535 1536 1536 1536 1537 1538 1540 1541 1542 1543 1543 1545 1547 1547 1547 1547 1549 1548 1549 1548 1548
1532 1532 1532 1532 1532 1532 1533 1534 1536 1536 1537 1537 1538 1538 1539 1539 1540 1542 1541 1543 1543 1545
1530 1529 1528 1528 1528 1527 1526 1528 1529 1531 1531 1531 1532 1532 1532 1533 1534 1534 1534 1534 1535 1536
1529 1528 1526 1524 1523 1522 1523 1523 1522 1524 1524 1525 1525 1526 1526 1527 1527 1527 1527 1526 1527 1528
1526 1525 1523 1522 1520 1518 1518 1517 1518 1519 1520 1520 1519 1519 1519 1520 1520 1520 1520 1519 1519 1520
1523 1521 1519 1517 1516 1516 1514 1513 1513 1513 1512 1513 1512 1512 1512 1512 1513 1513 1512 1513 1512 1513
1518 1516 1514 1513 1511 1510 1510 1509 1508 1507 1507 1507 1506 1506 1507 1507 1507 1507 1506 1505 1506 1506
1513 1511 1510 1509 1508 1506 1504 1504 1503 1503 1502 1501 1500 1500 1500 1501 1500 1500 1500 1499 1500 1500
1508 1507 1505 1503 1502 1501 1500 1499 1498 1497 1498 1496 1496 1495 1495 1495 1494 1493 1492 1492 1492 1493
1504 1501 1499 1497 1496 1495 1495 1494 1493 1492 1491 1491 1490 1490 1490 1490 1488 1486 1485 1485 1485 1485
1498 1496 1493 1491 1488 1487 1487 1487 1487 1486 1487 1486 1485 1485 1484 1484 1482 1481 1480 1479 1477 1477
1494 1491 1489 1485 1482 1480 1479 1478 1480 1480 1480 1481 1481 1480 1479 1479 1476 1475 1474 1473 1471 1469
Wind_Speed
11 15 18 21 24 22 20 22 21 14 15 19 19 20 17 18 19 18 20 20 19 17
13 15 20 21 22 20 20 20 23 23 24 22 23 21 21 20 20 20 19 20 20 21
12 16 18 20 21 23 25 21 20 21 20 18 22 24 24 24 22 24 23 23 23 22
16 17 15 19 22 21 20 20 23 23 23 24 25 25 27 25 24 26 26 24 22 22
11 14 15 19 21 24 22 22 21 21 23 27 26 25 26 26 28 29 28 28 28 25
11 10 14 15 15 18 21 20 21 16 19 19 22 24 26 26 26 27 26 26 28 28
12 12 12 15 16 16 17 18 19 23 23 20 19 22 22 21 23 25 26 26 26 25
16 14 14 15 16 16 15 14 15 18 21 22 23 23 22 20 19 21 23 23 24 25
18 17 17 15 13 15 16 15 15 14 15 17 18 23 23 24 25 25 25 26 25 25
17 19 20 19 16 14 14 15 15 15 15 17 19 17 16 15 17 26 33 32 29 26
20 21 21 21 20 19 17 16 15 15 15 17 17 17 17 18 19 22 25 29 31 33
23 23 23 25 25 24 22 20 18 16 16 17 17 18 19 18 19 18 19 22 25 27
19 20 21 22 24 27 28 28 24 20 18 18 20 19 19 16 17 21 17 14 17 24
20 17 17 21 20 21 23 25 30 26 21 20 17 18 15 12 14 17 19 18 21 22
Wind_Direction
288 266 258 263 262 261 261 256 257 259 269 259 271 275 276 269 272 271 265 263 265 264
267 274 271 272 273 265 260 248 249 253 265 267 268 274 272 274 269 272 272 270 266 263
267 265 265 266 268 262 267 262 252 250 255 263 261 266 279 268 272 270 273 274 271 266
288 284 287 277 268 262 263 262 260 257 260 259 261 263 269 271 271 269 272 271 273 275
334 312 305 288 284 281 261 261 264 265 266 265 265 267 267 268 271 274 272 272 276 276
349 330 325 317 309 290 286 276 263 261 267 270 273 273 272 274 275 277 277 273 273 272
308 316 317 314 309 305 289 278 274 273 267 273 275 276 273 276 277 281 283 279 276 275
306 301 299 307 303 300 294 285 282 277 264 261 261 266 269 267 273 276 280 282 283 275
306 286 286 297 306 301 292 286 281 278 281 282 276 267 273 267 261 263 267 268 274 277
298 299 296 293 293 297 295 287 283 281 280 280 276 282 281 288 285 269 263 266 269 272
308 299 294 291 292 288 287 289 284 280 285 284 280 286 293 289 291 291 279 270 269 267
305 308 304 291 286 283 287 283 282 279 283 293 287 291 294 288 290 293 291 283 279 277
315 311 308 304 295 288 280 278 279 278 268 273 284 293 298 297 282 287 292 297 296 277
327 325 317 316 313 305 296 275 268 273 267 269 283 297 294 300 301 289 291 300 310 305